Flag for Germany Weather past 2 weeks in Wunstorf, Lower Saxony, Germany

Now
41 °F

Light rain. Passing clouds.


Feels Like: 31 °F
Forecast: 35 / 38 °F
Wind: 22 mph from Southwest

Location: Wunstorf Airport

Current Time: Jan 28, 2015 at 6:11:36 PM

Latest Report: Jan 28, 2015 at 5:20 PM


Visibility: N/A

Pressure: 29.36 "Hg

Humidity: 81%

Dew point: 36 °F

Location of WunstorfLocation

Historic Weather in Wunstorf — Graph

°F

Wunstorf temperature yesterday

Maximum temperature yesterday: 41 °F (at 12:20 PM)
Minimum temperature yesterday: 36 °F (at 3:20 AM)
Average temperature yesterday: 37 °F

Past Weeks' High & Low Weather Summary

 TemperatureHumidityPressure
High52 °F (Jan 15, 8:20 PM)100% (Jan 13, 5:20 PM)30.33 "Hg (Jan 13, 5:20 PM)
Low23 °F (Jan 21, 6:20 AM)61% (Jan 16, 10:20 AM)29.39 "Hg (Jan 28, 4:20 PM)
Average36 °F85%29.94 "Hg
* Reported Jan 13 4:20 PM — Jan 28 4:20 PM, Wunstorf, Weather by CustomWeather, © 2014

Note: Actual official high and low records may vary slightly from our data, if they occured in-between our weather recording intervals... More about our weather records

Advertising

Wunstorf weather history for previous 24 hours

 ConditionsComfort  
Time TempWeatherWind HumidityBarometerVisibility
4:20 PM
Jan 28
43 °FPartly sunny.18 mph71%29.39 "HgN/A
3:20 PM43 °FPartly sunny.24 mph71%29.45 "HgN/A
2:20 PM43 °FPartly sunny.22 mph76%29.53 "HgN/A
1:20 PM43 °FPartly sunny.21 mph76%29.59 "HgN/A
12:20 PM43 °FPartly sunny.17 mph76%29.65 "HgN/A
11:20 AM41 °FPartly sunny.16 mph81%29.71 "HgN/A
10:20 AM41 °FPartly sunny.14 mph81%29.80 "HgN/A
9:20 AM39 °FPartly sunny.13 mph87%29.83 "HgN/A
8:20 AM39 °FPartly sunny.14 mph87%29.89 "HgN/A
7:20 AM39 °FPartly cloudy.13 mph87%29.89 "HgN/A
6:20 AM39 °FPartly cloudy.13 mph87%29.92 "HgN/A
5:20 AM37 °FPassing clouds.14 mph93%29.95 "HgN/A
4:20 AM37 °FPassing clouds.13 mph93%29.98 "HgN/A
3:20 AM37 °FPassing clouds.8 mph93%30.01 "HgN/A
2:20 AM37 °FPartly cloudy.7 mph100%30.04 "HgN/A
1:20 AM37 °FLow clouds.7 mph93%30.07 "HgN/A
12:20 AM36 °FPassing clouds.7 mph100%30.07 "HgN/A
11:20 PM
Jan 27
36 °FPartly cloudy.6 mph100%30.09 "HgN/A
10:20 PM36 °FPassing clouds.8 mph93%30.09 "HgN/A
9:20 PM36 °FPassing clouds.7 mph93%30.09 "HgN/A
8:20 PM36 °FPassing clouds.6 mph93%30.09 "HgN/A
7:20 PM37 °FPartly cloudy.8 mph93%30.09 "HgN/A
6:20 PM37 °FPartly cloudy.8 mph93%30.09 "HgN/A
Weather by CustomWeather, © 2014

See weather overviewHow to use our weather pages